N301FB KMSY-KMEM

Flight info

Callsign N301FB
Flight time 1h 6m
Altitude 38000
Route MCB MEVEE HOBRK4
Aircraft CRJ9/M-SDFGIRWY/S

Departure

Time 2026-05-06 00:07
Airport Louis Armstrong New Orleans International Airport (KMSY)

Arrival

Time 2026-05-06 01:14
Airport Memphis International Airport (KMEM)
Time Latitude Longitude Altitude Speed Heading
2026-05-05 23:47 29.98652 -90.25571 14 ft 0 kts 304°
2026-05-05 23:54 29.98643 -90.25555 14 ft 2 kts 285°
2026-05-05 23:54 29.98646 -90.25537 15 ft 2 kts 231°
2026-05-05 23:54 29.98648 -90.25534 14 ft 1 kts 213°
2026-05-05 23:54 29.98647 -90.25534 14 ft 0 kts 213°
2026-05-05 23:57 29.98647 -90.25535 14 ft 1 kts 212°
2026-05-05 23:57 29.98642 -90.25536 14 ft 1 kts 187°
2026-05-05 23:57 29.98637 -90.25535 13 ft 1 kts 156°
2026-05-05 23:58 29.98633 -90.25530 13 ft 1 kts 121°
2026-05-05 23:58 29.98632 -90.25524 13 ft 1 kts 92°
2026-05-05 23:58 29.98632 -90.25520 13 ft 0 kts 70°
2026-05-05 23:58 29.98634 -90.25517 13 ft 0 kts 55°
2026-05-05 23:59 29.98635 -90.25515 13 ft 2 kts 49°
2026-05-05 23:59 29.98647 -90.25502 14 ft 1 kts 39°
2026-05-05 23:59 29.98663 -90.25489 14 ft 5 kts 35°
2026-05-05 23:59 29.98702 -90.25462 14 ft 8 kts 25°
2026-05-06 00:00 29.98735 -90.25429 15 ft 1 kts 60°
2026-05-06 00:00 29.98752 -90.25401 13 ft 7 kts 44°
2026-05-06 00:00 29.98811 -90.25367 12 ft 12 kts 10°
2026-05-06 00:00 29.98875 -90.25427 12 ft 14 kts 280°
2026-05-06 00:01 29.98903 -90.25548 13 ft 17 kts 281°
2026-05-06 00:01 29.98939 -90.25686 16 ft 19 kts 286°
2026-05-06 00:01 29.98982 -90.25849 14 ft 24 kts 286°
2026-05-06 00:01 29.99029 -90.26052 12 ft 28 kts 284°
2026-05-06 00:02 29.99077 -90.26266 10 ft 28 kts 286°
2026-05-06 00:02 29.99101 -90.26366 10 ft 1 kts 285°
2026-05-06 00:02 29.99108 -90.26393 11 ft 5 kts 284°
2026-05-06 00:02 29.99119 -90.26447 11 ft 9 kts 283°
2026-05-06 00:03 29.99141 -90.26534 11 ft 15 kts 283°
2026-05-06 00:03 29.99173 -90.26679 9 ft 22 kts 290°
2026-05-06 00:03 29.99224 -90.26867 12 ft 28 kts 284°
2026-05-06 00:03 29.99281 -90.27106 10 ft 34 kts 285°
2026-05-06 00:04 29.99350 -90.27396 5 ft 41 kts 289°
2026-05-06 00:04 29.99432 -90.27732 5 ft 46 kts 285°
2026-05-06 00:04 29.99500 -90.28038 7 ft 13 kts 283°
2026-05-06 00:04 29.99532 -90.28145 8 ft 17 kts 297°
2026-05-06 00:05 29.99567 -90.28178 8 ft 0 kts 358°
2026-05-06 00:05 29.99572 -90.28178 8 ft 3 kts 358°
2026-05-06 00:05 29.99623 -90.28176 8 ft 11 kts
2026-05-06 00:06 29.99648 -90.28093 7 ft 15 kts 101°
2026-05-06 00:06 29.99642 -90.28065 7 ft 0 kts 104°
2026-05-06 00:07 29.99633 -90.28018 7 ft 31 kts 104°
2026-05-06 00:07 29.99467 -90.27418 4 ft 122 kts 107°
2026-05-06 00:07 29.99220 -90.26218 288 ft 169 kts 105°
2026-05-06 00:07 29.98956 -90.24968 1507 ft 149 kts 108°
2026-05-06 00:08 29.98731 -90.23741 2419 ft 166 kts 109°
2026-05-06 00:08 29.98460 -90.22392 3235 ft 183 kts 109°
2026-05-06 00:08 29.98127 -90.20821 3661 ft 222 kts 109°
2026-05-06 00:08 29.97755 -90.18913 3862 ft 268 kts 100°
2026-05-06 00:09 29.98084 -90.16668 3923 ft 312 kts 67°
2026-05-06 00:09 29.99486 -90.14619 3964 ft 344 kts 39°
2026-05-06 00:09 30.01700 -90.13413 4160 ft 358 kts
2026-05-06 00:09 30.04103 -90.13296 5192 ft 343 kts 355°
2026-05-06 00:10 30.06492 -90.13414 6384 ft 339 kts 353°
2026-05-06 00:10 30.08845 -90.13593 7560 ft 343 kts 352°
2026-05-06 00:10 30.11270 -90.13799 8327 ft 356 kts 352°
2026-05-06 00:10 30.12929 -90.13944 8875 ft 364 kts 352°
2026-05-06 00:11 30.15468 -90.14170 9858 ft 368 kts 352°
2026-05-06 00:11 30.18867 -90.14471 11141 ft 371 kts 352°
2026-05-06 00:11 30.21450 -90.14701 12142 ft 373 kts 352°
2026-05-06 00:11 30.24045 -90.14931 13080 ft 376 kts 352°
2026-05-06 00:12 30.25781 -90.15083 13703 ft 377 kts 352°
2026-05-06 00:12 30.28414 -90.15311 14498 ft 380 kts 352°
2026-05-06 00:12 30.31069 -90.15532 15272 ft 384 kts 351°
2026-05-06 00:12 30.33742 -90.15754 16043 ft 387 kts 351°
2026-05-06 00:13 30.36444 -90.15983 16805 ft 390 kts 350°
2026-05-06 00:13 30.39165 -90.16210 17531 ft 394 kts 349°
2026-05-06 00:13 30.41909 -90.16441 18233 ft 398 kts 349°
2026-05-06 00:13 30.44683 -90.16681 18846 ft 400 kts 349°
2026-05-06 00:14 30.47467 -90.16931 19439 ft 403 kts 348°
2026-05-06 00:14 30.50274 -90.17178 20043 ft 405 kts 348°
2026-05-06 00:14 30.53098 -90.17425 20619 ft 408 kts 348°
2026-05-06 00:14 30.55936 -90.17673 21182 ft 410 kts 348°
2026-05-06 00:15 30.58795 -90.17921 21731 ft 413 kts 348°
2026-05-06 00:15 30.61668 -90.18174 22269 ft 416 kts 348°
2026-05-06 00:15 30.64560 -90.18429 22764 ft 418 kts 348°
2026-05-06 00:15 30.67477 -90.18689 23269 ft 421 kts 348°
2026-05-06 00:16 30.70406 -90.18952 23712 ft 423 kts 348°
2026-05-06 00:16 30.73345 -90.19224 24083 ft 426 kts 348°
2026-05-06 00:16 30.76315 -90.19501 24437 ft 429 kts 348°
2026-05-06 00:16 30.79302 -90.19782 24795 ft 432 kts 348°
2026-05-06 00:17 30.82269 -90.20068 25135 ft 435 kts 348°
2026-05-06 00:17 30.85291 -90.20362 25470 ft 437 kts 347°
2026-05-06 00:17 30.88335 -90.20706 25590 ft 443 kts 347°
2026-05-06 00:17 30.91351 -90.21061 26079 ft 442 kts 347°
2026-05-06 00:18 30.94458 -90.21423 26411 ft 444 kts 346°
2026-05-06 00:18 30.97505 -90.21781 26747 ft 447 kts 346°
2026-05-06 00:18 31.00602 -90.22148 27048 ft 449 kts 346°
2026-05-06 00:18 31.03721 -90.22524 27342 ft 452 kts 346°
2026-05-06 00:19 31.06896 -90.22912 27630 ft 454 kts 346°
2026-05-06 00:19 31.10006 -90.23291 27902 ft 456 kts 346°
2026-05-06 00:19 31.13169 -90.23682 28170 ft 459 kts 346°
2026-05-06 00:19 31.16353 -90.24077 28436 ft 461 kts 346°
2026-05-06 00:20 31.19552 -90.24476 28699 ft 463 kts 346°
2026-05-06 00:20 31.22759 -90.24880 28930 ft 465 kts 346°
2026-05-06 00:20 31.25984 -90.25288 29166 ft 468 kts 346°
2026-05-06 00:20 31.29227 -90.25703 29380 ft 469 kts 345°
2026-05-06 00:21 31.32472 -90.26132 29574 ft 470 kts 345°
2026-05-06 00:21 31.35732 -90.26606 29757 ft 472 kts 345°
2026-05-06 00:21 31.38993 -90.27100 29934 ft 473 kts 344°
2026-05-06 00:21 31.42263 -90.27622 30083 ft 474 kts 344°
2026-05-06 00:22 31.45519 -90.28188 30232 ft 474 kts 343°
2026-05-06 00:22 31.48781 -90.28782 30371 ft 475 kts 343°
2026-05-06 00:22 31.52048 -90.29376 30507 ft 476 kts 343°
2026-05-06 00:22 31.55336 -90.29944 30692 ft 477 kts 343°
2026-05-06 00:23 31.58623 -90.30491 30832 ft 477 kts 343°
2026-05-06 00:23 31.65215 -90.31580 31040 ft 479 kts 343°
2026-05-06 00:24 31.71781 -90.32659 31233 ft 480 kts 343°
2026-05-06 00:24 31.78400 -90.33762 31382 ft 481 kts 343°
2026-05-06 00:24 31.81714 -90.34306 31517 ft 480 kts 343°
2026-05-06 00:25 31.85025 -90.34854 31521 ft 481 kts 343°
2026-05-06 00:25 31.91663 -90.35958 31528 ft 482 kts 343°
2026-05-06 00:26 31.98313 -90.37066 31541 ft 483 kts 343°
2026-05-06 00:26 32.04978 -90.38174 31571 ft 483 kts 343°
2026-05-06 00:27 32.11582 -90.39266 31913 ft 469 kts 342°
2026-05-06 00:27 32.14766 -90.39790 32405 ft 456 kts 342°
2026-05-06 00:27 32.17872 -90.40302 32902 ft 445 kts 342°
2026-05-06 00:27 32.20900 -90.40805 33404 ft 434 kts 342°
2026-05-06 00:28 32.23851 -90.41299 33902 ft 424 kts 341°
2026-05-06 00:28 32.26737 -90.41781 34350 ft 414 kts 341°
2026-05-06 00:28 32.29515 -90.42240 34784 ft 404 kts 341°
2026-05-06 00:28 32.32262 -90.42694 35236 ft 393 kts 340°
2026-05-06 00:29 32.34940 -90.43138 35675 ft 383 kts 340°
2026-05-06 00:29 32.37546 -90.43547 36143 ft 373 kts 340°
2026-05-06 00:29 32.40081 -90.43939 36604 ft 361 kts 339°
2026-05-06 00:29 32.42529 -90.44346 37082 ft 349 kts 338°
2026-05-06 00:30 32.44899 -90.44741 37515 ft 340 kts 338°
2026-05-06 00:30 32.47224 -90.45133 37725 ft 337 kts 337°
2026-05-06 00:30 32.49542 -90.45524 37810 ft 336 kts 337°
2026-05-06 00:31 32.54188 -90.46310 37877 ft 339 kts 338°
2026-05-06 00:31 32.58892 -90.47107 37893 ft 345 kts 338°
2026-05-06 00:32 32.63721 -90.47925 37928 ft 356 kts 338°
2026-05-06 00:32 32.68696 -90.48766 37905 ft 366 kts 338°
2026-05-06 00:33 32.73799 -90.49634 37905 ft 375 kts 338°
2026-05-06 00:33 32.79037 -90.50521 37898 ft 385 kts 338°
2026-05-06 00:34 32.84402 -90.51432 37892 ft 394 kts 339°
2026-05-06 00:34 32.89881 -90.52360 37933 ft 402 kts 339°
2026-05-06 00:35 32.95489 -90.53290 37892 ft 410 kts 339°
2026-05-06 00:35 33.01152 -90.54248 37879 ft 417 kts 339°
2026-05-06 00:36 33.06941 -90.55239 37877 ft 423 kts 339°
2026-05-06 00:36 33.12814 -90.56239 37877 ft 429 kts 339°
2026-05-06 00:37 33.18750 -90.57253 37892 ft 433 kts 339°
2026-05-06 00:37 33.24649 -90.58533 37874 ft 418 kts 328°
2026-05-06 00:37 33.27178 -90.60058 37884 ft 400 kts 317°
2026-05-06 00:38 33.29669 -90.61646 37874 ft 418 kts 328°
2026-05-06 00:38 33.32573 -90.62452 37880 ft 442 kts 342°
2026-05-06 00:38 33.35737 -90.62392 37886 ft 467 kts 355°
2026-05-06 00:38 33.38975 -90.61448 37890 ft 492 kts
2026-05-06 00:39 33.42168 -90.59837 37879 ft 495 kts
2026-05-06 00:39 33.45415 -90.58810 37875 ft 472 kts 354°
2026-05-06 00:39 33.48606 -90.58659 37874 ft 448 kts 342°
2026-05-06 00:39 33.51581 -90.59352 37880 ft 425 kts 329°
2026-05-06 00:40 33.54185 -90.60827 37888 ft 405 kts 316°
2026-05-06 00:40 33.59253 -90.63954 37873 ft 433 kts 335°
2026-05-06 00:40 33.62259 -90.64484 37877 ft 449 kts 342°
2026-05-06 00:41 33.65390 -90.64724 37870 ft 452 kts 344°
2026-05-06 00:41 33.71607 -90.65368 38223 ft 437 kts 344°
2026-05-06 00:41 33.74566 -90.65774 38014 ft 419 kts 345°
2026-05-06 00:42 33.77414 -90.66122 37971 ft 404 kts 345°
2026-05-06 00:42 33.80173 -90.66441 37928 ft 392 kts 344°
2026-05-06 00:42 33.82853 -90.66780 37853 ft 384 kts 344°
2026-05-06 00:42 33.85523 -90.67126 36743 ft 389 kts 343°
2026-05-06 00:43 33.88240 -90.67483 35523 ft 396 kts 343°
2026-05-06 00:43 33.90997 -90.67846 34308 ft 402 kts 343°
2026-05-06 00:43 33.93804 -90.68218 32852 ft 410 kts 343°
2026-05-06 00:43 33.96682 -90.68625 31544 ft 419 kts 344°
2026-05-06 00:44 33.99521 -90.69025 31206 ft 404 kts 344°
2026-05-06 00:44 34.02336 -90.69414 30517 ft 403 kts 345°
2026-05-06 00:44 34.05091 -90.69773 30133 ft 394 kts 345°
2026-05-06 00:44 34.07846 -90.70135 29100 ft 401 kts 345°
2026-05-06 00:45 34.10643 -90.70515 28085 ft 407 kts 346°
2026-05-06 00:45 34.13477 -90.70900 27105 ft 412 kts 346°
2026-05-06 00:45 34.16347 -90.71282 26157 ft 417 kts 347°
2026-05-06 00:45 34.19245 -90.71666 25250 ft 421 kts 348°
2026-05-06 00:46 34.22175 -90.72053 24401 ft 426 kts 348°
2026-05-06 00:46 34.25133 -90.72448 23535 ft 430 kts 349°
2026-05-06 00:46 34.28080 -90.72835 22561 ft 433 kts 349°
2026-05-06 00:46 34.31080 -90.73221 21657 ft 434 kts 350°
2026-05-06 00:47 34.34053 -90.73604 21198 ft 425 kts 350°
2026-05-06 00:47 34.36945 -90.73976 20997 ft 412 kts 349°
2026-05-06 00:47 34.39725 -90.74335 21131 ft 392 kts 349°
2026-05-06 00:47 34.42416 -90.74687 20475 ft 393 kts 349°
2026-05-06 00:48 34.45192 -90.75074 19381 ft 407 kts 349°
2026-05-06 00:48 34.48039 -90.75476 18347 ft 418 kts 350°
2026-05-06 00:48 34.50955 -90.75878 17208 ft 425 kts 351°
2026-05-06 00:48 34.53919 -90.76269 16080 ft 431 kts 351°
2026-05-06 00:49 34.56909 -90.76664 14987 ft 434 kts 351°
2026-05-06 00:49 34.59919 -90.77065 13936 ft 436 kts 351°
2026-05-06 00:49 34.62957 -90.77290 12793 ft 440 kts
2026-05-06 00:49 34.65962 -90.76490 11659 ft 447 kts 18°
2026-05-06 00:50 34.68652 -90.74587 10718 ft 449 kts 37°
2026-05-06 00:50 34.70726 -90.71854 10241 ft 431 kts 55°
2026-05-06 00:50 34.71963 -90.68662 10011 ft 406 kts 74°
2026-05-06 00:50 34.72290 -90.65381 9906 ft 381 kts 94°
2026-05-06 00:51 34.71736 -90.62354 9860 ft 356 kts 115°
2026-05-06 00:51 34.70713 -90.59708 9847 ft 338 kts 119°
2026-05-06 00:51 34.69772 -90.57154 9821 ft 325 kts 115°
2026-05-06 00:51 34.68900 -90.54683 9815 ft 312 kts 116°
2026-05-06 00:52 34.68027 -90.52319 9812 ft 302 kts 116°
2026-05-06 00:52 34.67602 -90.49879 9795 ft 292 kts 90°
2026-05-06 00:52 34.67497 -90.47480 9796 ft 278 kts 102°
2026-05-06 00:52 34.67464 -90.45192 9776 ft 269 kts 75°
2026-05-06 00:53 34.68378 -90.43307 9787 ft 255 kts 37°
2026-05-06 00:53 34.69890 -90.42425 9813 ft 234 kts
2026-05-06 00:53 34.71361 -90.42774 9834 ft 210 kts 320°
2026-05-06 00:53 34.72516 -90.43767 9798 ft 205 kts 331°
2026-05-06 00:54 34.73928 -90.43833 9773 ft 211 kts 17°
2026-05-06 00:54 34.75054 -90.42725 9801 ft 209 kts 51°
2026-05-06 00:54 34.75731 -90.41131 9483 ft 222 kts 69°
2026-05-06 00:54 34.76264 -90.39378 9571 ft 212 kts 65°
2026-05-06 00:55 34.76890 -90.37875 9806 ft 189 kts 59°
2026-05-06 00:55 34.77516 -90.36495 9879 ft 191 kts 60°
2026-05-06 00:55 34.78136 -90.35003 10285 ft 202 kts 60°
2026-05-06 00:55 34.78802 -90.33531 11114 ft 197 kts 58°
2026-05-06 00:56 34.79512 -90.31966 11378 ft 234 kts 60°
2026-05-06 00:56 34.80317 -90.30051 11553 ft 270 kts 60°
2026-05-06 00:56 34.81299 -90.28067 12343 ft 273 kts 51°
2026-05-06 00:56 34.82506 -90.26378 13548 ft 260 kts 41°
2026-05-06 00:57 34.83753 -90.24519 13255 ft 315 kts 52°
2026-05-06 00:57 34.85222 -90.22150 12397 ft 380 kts 46°
2026-05-06 00:57 34.87186 -90.19857 12618 ft 402 kts 37°
2026-05-06 00:57 34.89390 -90.17624 12530 ft 428 kts 39°
2026-05-06 00:58 34.91567 -90.14879 11765 ft 471 kts 48°
2026-05-06 00:58 34.93593 -90.11970 10857 ft 405 kts 46°
2026-05-06 00:58 34.95735 -90.10171 8987 ft 374 kts
2026-05-06 00:58 34.98291 -90.09982 8616 ft 342 kts
2026-05-06 00:59 35.00485 -90.09621 8891 ft 301 kts
2026-05-06 00:59 35.02528 -90.09259 7969 ft 293 kts
2026-05-06 00:59 35.03840 -90.08994 7471 ft 285 kts
2026-05-06 00:59 35.05774 -90.08866 6761 ft 273 kts 354°
2026-05-06 01:00 35.07606 -90.09052 6353 ft 252 kts 349°
2026-05-06 01:00 35.09279 -90.09150 6242 ft 230 kts 358°
2026-05-06 01:00 35.11316 -90.09024 5821 ft 214 kts 353°
2026-05-06 01:00 35.12796 -90.09108 5323 ft 213 kts 352°
2026-05-06 01:01 35.14277 -90.09262 4794 ft 214 kts 347°
2026-05-06 01:01 35.15278 -90.09381 4447 ft 211 kts 352°
2026-05-06 01:01 35.16630 -90.09497 4362 ft 186 kts 346°
2026-05-06 01:01 35.17907 -90.09720 4523 ft 184 kts 346°
2026-05-06 01:02 35.19186 -90.09873 4616 ft 191 kts 349°
2026-05-06 01:02 35.20523 -90.10074 4714 ft 192 kts 343°
2026-05-06 01:02 35.21852 -90.10257 4805 ft 199 kts 352°
2026-05-06 01:02 35.23258 -90.10361 4846 ft 205 kts 351°
2026-05-06 01:03 35.24755 -90.10396 4586 ft 228 kts 353°
2026-05-06 01:03 35.26389 -90.10517 4409 ft 238 kts 354°
2026-05-06 01:03 35.28067 -90.10502 4178 ft 241 kts 354°
2026-05-06 01:03 35.29670 -90.10597 4075 ft 221 kts 352°
2026-05-06 01:04 35.31174 -90.10627 3914 ft 213 kts 358°
2026-05-06 01:04 35.32650 -90.10440 3631 ft 213 kts
2026-05-06 01:04 35.34018 -90.10184 3764 ft 188 kts 19°
2026-05-06 01:04 35.34969 -90.09166 3501 ft 184 kts 70°
2026-05-06 01:05 35.35074 -90.07711 3334 ft 160 kts 111°
2026-05-06 01:05 35.34908 -90.06485 3616 ft 146 kts 109°
2026-05-06 01:05 35.34740 -90.05188 3781 ft 163 kts 108°
2026-05-06 01:05 35.34540 -90.03759 3877 ft 182 kts 108°
2026-05-06 01:06 35.34306 -90.02155 3912 ft 198 kts 108°
2026-05-06 01:06 35.33768 -90.00634 3885 ft 194 kts 142°
2026-05-06 01:06 35.32685 -89.99687 3956 ft 190 kts 163°
2026-05-06 01:06 35.31415 -89.99640 3961 ft 185 kts 200°
2026-05-06 01:07 35.30214 -89.99991 4302 ft 173 kts 183°
2026-05-06 01:07 35.29058 -89.99738 4714 ft 168 kts 168°
2026-05-06 01:07 35.27950 -89.99226 4867 ft 175 kts 166°
2026-05-06 01:07 35.26826 -89.98771 4873 ft 162 kts 171°
2026-05-06 01:08 35.25765 -89.98397 4696 ft 158 kts 169°
2026-05-06 01:08 35.24716 -89.98002 4393 ft 158 kts 171°
2026-05-06 01:08 35.23659 -89.97662 4108 ft 156 kts 172°
2026-05-06 01:08 35.22596 -89.97429 3802 ft 156 kts 178°
2026-05-06 01:09 35.21517 -89.97267 3491 ft 157 kts 179°
2026-05-06 01:09 35.20420 -89.97160 3102 ft 159 kts 183°
2026-05-06 01:09 35.19308 -89.97176 2704 ft 160 kts 186°
2026-05-06 01:09 35.18182 -89.97265 2276 ft 164 kts 187°
2026-05-06 01:10 35.17106 -89.97350 1974 ft 138 kts 188°
2026-05-06 01:10 35.16249 -89.97403 1710 ft 118 kts 187°
2026-05-06 01:10 35.15450 -89.97433 1395 ft 119 kts 185°
2026-05-06 01:10 35.14584 -89.97452 1298 ft 125 kts 184°
2026-05-06 01:11 35.13752 -89.97452 1280 ft 116 kts 182°
2026-05-06 01:11 35.12940 -89.97452 1309 ft 116 kts 182°
2026-05-06 01:11 35.12131 -89.97417 1345 ft 118 kts 181°
2026-05-06 01:11 35.11313 -89.97368 1368 ft 119 kts 182°
2026-05-06 01:12 35.10478 -89.97332 1359 ft 120 kts 182°
2026-05-06 01:12 35.09629 -89.97305 1365 ft 124 kts 182°
2026-05-06 01:12 35.08791 -89.97275 1397 ft 121 kts 182°
2026-05-06 01:12 35.07928 -89.97272 1257 ft 126 kts 183°
2026-05-06 01:13 35.07020 -89.97311 1112 ft 136 kts 183°
2026-05-06 01:13 35.06135 -89.97303 810 ft 111 kts 181°
2026-05-06 01:13 35.05350 -89.97307 461 ft 114 kts 180°
2026-05-06 01:13 35.04698 -89.97300 318 ft 55 kts 184°
2026-05-06 01:14 35.04263 -89.97298 314 ft 40 kts 179°
2026-05-06 01:14 35.03957 -89.97281 310 ft 47 kts 182°
2026-05-06 01:14 35.03817 -89.97342 309 ft 0 kts 240°
2026-05-06 01:15 35.03815 -89.97346 308 ft 3 kts 245°
2026-05-06 01:15 35.03802 -89.97413 307 ft 13 kts 264°
2026-05-06 01:15 35.03797 -89.97561 307 ft 21 kts 271°
2026-05-06 01:15 35.03800 -89.97659 305 ft 0 kts 270°
2026-05-06 01:16 35.03800 -89.97662 305 ft 2 kts 269°
2026-05-06 01:16 35.03799 -89.97687 305 ft 0 kts 265°
2026-05-06 01:18 35.03800 -89.97700 305 ft 3 kts 293°
2026-05-06 01:18 35.03805 -89.97706 305 ft 3 kts 318°
2026-05-06 01:19 35.03837 -89.97725 307 ft 8 kts 345°
2026-05-06 01:19 35.03903 -89.97735 309 ft 11 kts 359°
2026-05-06 01:19 35.03994 -89.97736 310 ft 14 kts
2026-05-06 01:19 35.04101 -89.97737 314 ft 17 kts 356°
2026-05-06 01:20 35.04235 -89.97739 314 ft 22 kts
2026-05-06 01:20 35.04406 -89.97742 315 ft 27 kts
2026-05-06 01:20 35.04606 -89.97745 313 ft 32 kts
2026-05-06 01:20 35.04841 -89.97761 312 ft 35 kts
2026-05-06 01:21 35.05090 -89.97754 313 ft 28 kts 358°
2026-05-06 01:21 35.05219 -89.97756 317 ft 19 kts
2026-05-06 01:21 35.05356 -89.97771 322 ft 21 kts 350°
2026-05-06 01:21 35.05469 -89.97802 323 ft 14 kts 319°
2026-05-06 01:22 35.05492 -89.97935 313 ft 21 kts 271°
2026-05-06 01:22 35.05504 -89.98128 297 ft 11 kts 270°
2026-05-06 01:22 35.05481 -89.98259 290 ft 16 kts 232°
2026-05-06 01:22 35.05466 -89.98270 292 ft 0 kts 178°